TimeEDT,TemperatureF,Dew PointF,Humidity,Sea Level PressureIn,VisibilityMPH,Wind Direction,Wind SpeedMPH,Gust SpeedMPH,PrecipitationIn,Events,Conditions,WindDirDegrees,DateUTC
12:53 AM,37.9,28.0,68,30.03,10.0,WNW,8.1,16.1,N/A,,Clear,290,2013-10-26 04:53:00
1:53 AM,37.0,28.0,70,30.03,10.0,West,3.5,-,N/A,,Clear,280,2013-10-26 05:53:00
2:53 AM,36.0,28.0,73,30.03,10.0,WNW,4.6,-,N/A,,Clear,300,2013-10-26 06:53:00
3:53 AM,35.1,27.0,72,30.03,10.0,Variable,3.5,-,N/A,,Clear,0,2013-10-26 07:53:00
4:53 AM,30.9,27.0,85,30.04,10.0,Calm,Calm,-,N/A,,Clear,0,2013-10-26 08:53:00
5:53 AM,30.9,25.0,79,30.05,10.0,Calm,Calm,-,N/A,,Clear,0,2013-10-26 09:53:00
6:53 AM,30.9,25.0,79,30.06,10.0,WSW,3.5,-,N/A,,Clear,240,2013-10-26 10:53:00
7:53 AM,33.1,25.0,72,30.06,10.0,Calm,Calm,-,N/A,,Clear,0,2013-10-26 11:53:00
8:53 AM,36.0,25.0,64,30.07,10.0,Calm,Calm,-,N/A,,Clear,0,2013-10-26 12:53:00
9:53 AM,39.0,26.1,60,30.06,10.0,Variable,4.6,-,N/A,,Scattered Clouds,0,2013-10-26 13:53:00
10:53 AM,39.9,24.1,53,30.06,10.0,Variable,5.8,-,N/A,,Partly Cloudy,0,2013-10-26 14:53:00
11:53 AM,42.1,24.1,49,30.04,10.0,Variable,6.9,-,N/A,,Mostly Cloudy,0,2013-10-26 15:53:00
12:53 PM,42.1,25.0,51,30.01,10.0,WSW,5.8,-,N/A,,Overcast,250,2013-10-26 16:53:00
1:53 PM,44.1,27.0,51,29.97,10.0,Variable,5.8,-,N/A,,Overcast,0,2013-10-26 17:53:00
2:53 PM,44.1,26.1,49,29.96,10.0,Variable,5.8,-,N/A,,Overcast,0,2013-10-26 18:53:00
3:53 PM,44.1,28.9,55,29.94,10.0,Variable,6.9,16.1,N/A,,Overcast,0,2013-10-26 19:53:00
4:53 PM,43.0,33.1,68,29.92,10.0,Calm,Calm,-,0.00,,Overcast,0,2013-10-26 20:53:00
5:42 PM,41.0,35.6,81,29.88,7.0,Variable,4.6,-,0.00,Rain,Light Rain,0,2013-10-26 21:42:00
5:51 PM,41.0,35.6,81,29.88,9.0,Calm,Calm,-,0.00,Rain,Light Rain,0,2013-10-26 21:51:00
5:53 PM,41.0,36.0,82,29.91,9.0,South,3.5,-,0.00,Rain,Light Rain,180,2013-10-26 21:53:00
6:29 PM,39.2,35.6,87,29.89,5.0,Variable,4.6,-,0.02,Rain,Light Rain,0,2013-10-26 22:29:00
6:53 PM,39.9,37.0,89,29.93,10.0,Variable,3.5,-,0.02,Rain,Light Rain,0,2013-10-26 22:53:00
7:53 PM,39.9,36.0,86,29.92,10.0,Variable,3.5,-,0.01,Rain,Light Rain,0,2013-10-26 23:53:00
8:53 PM,39.9,36.0,86,29.91,10.0,Calm,Calm,-,0.01,Rain,Light Rain,0,2013-10-27 00:53:00
9:53 PM,39.9,36.0,86,29.88,10.0,SE,3.5,-,0.00,,Overcast,140,2013-10-27 01:53:00
10:53 PM,39.0,36.0,89,29.85,10.0,Calm,Calm,-,N/A,,Scattered Clouds,0,2013-10-27 02:53:00
11:53 PM,37.9,36.0,93,29.85,9.0,Calm,Calm,-,N/A,,Overcast,0,2013-10-27 03:53:00